{"data":{"norad_id":65201,"intl_designator":"2025-176D","name":"STARLINK-34843","alt_names":[],"object_type":"PAYLOAD","status":"ACTIVE","operator":null,"country":"US","launch_date":"2025-08-14","launch_site_code":"AFETR","launch_vehicle":null,"mission":null,"orbit_class":"UNKNOWN","rcs_meters":null,"size_class":null,"mass_kg":null,"dimensions":null,"purposes":["comms"],"wikipedia_slug":null,"has_3d_model":false,"image_url":null,"decayed_at":null,"tle_current":{"epoch":"2026-05-25T01:26:43.308672Z","epoch_age_seconds":65952,"freshness":"FRESH","line1":"1 65201U 25176D   26145.06022348  .00020060  00000+0  60292-3 0  9997","line2":"2 65201  53.1577 157.2488 0000942  67.4303 292.6799 15.34416795 44824","mean_motion":15.34416795,"eccentricity":9.42e-5,"inclination_deg":53.1577,"raan_deg":157.2488,"arg_perigee_deg":67.4303,"mean_anomaly_deg":292.6799,"bstar":0.00060292,"rev_number":4482,"period_min":93.846730868193,"perigee_km":462.00891993467,"apogee_km":463.29772483141,"semimajor_km":6840.790322383,"source":"CELESTRAK","updated_at":"2026-05-25T13:38:20.717996Z"}}}